Regional Weather Roundup
Issued by NWS Goodland, KS

Home | Current Version | Previous Version | Text Only | Print | Product List | Glossary On
Versions: 1 2 3 4 5 6 7 8 9 10 11 12 13 14 15 16 17 18 19 20 21 22 23 24 25 26 27 28 29 30 31 32 33 34 35 36 37 38 39 40 41 42 43 44 45 46 47 48 49 50
000
ASUS43 KGLD 181508
RWRGLD

GOODLAND FORECAST AREA HOURLY WEATHER ROUNDUP
NATIONAL WEATHER SERVICE GOODLAND KS
900 AM MDT FRI AUG 18 2017

...OFFICIAL OBSERVATIONS...

CITY           SKY/WX    TMP DP  RH WIND       PRES   REMARKS
GOODLAND KS    SUNNY     68  57  68 NW13      30.08S
HILL CITY KS   SUNNY     74  63  68 W10       30.03S
IMPERIAL NEB   SUNNY     68  59  73 NW10      30.08S
MCCOOK NEB     SUNNY     72  59  63 W7        30.03R
AKRON CO       SUNNY     67  50  54 W13       30.18S
BURLINGTON CO  SUNNY     69  55  60 NW13      30.13S
LIMON CO       SUNNY     68  52  56 NW9       30.24R
$$

...UNOFFICIAL OBSERVATIONS...

CITY           SKY/WX    TMP DP  RH WIND       PRES   REMARKS
LENORA KS        N/A     72  32  23 SW9         N/A
NORTON KS      SUNNY     73  55  53 SW9       30.02S
SHARON SPRINGS   N/A     67  64  90 W6G15       N/A
TRENTON NEB      N/A     70  32  24 NW5         N/A
KIT CARSON CO    N/A     72  55  55 MISG        N/A
YUMA CO        FAIR      68  41  37 NW7       30.15S
$$



USA.gov is the U.S. government's official web portal to all federal, state and local government web resources and services.